| time (UTC) | temp F | wind direction | speed MPH | gust MPH | rain 1hr in | rain 24hr in | rain mn in | humidity % | barometer mb |
| 20260510085107 | 49 | 104 | 2.0 | 6.0 | 0.00 | 0.03 | 0.03 | 92 | 1006.4 |
| 20260510084606 | 49 | 217 | 2.0 | 7.0 | 0.00 | 0.03 | 0.03 | 92 | 1006.4 |
| 20260510084335 | 49 | 172 | 2.0 | 7.0 | 0.00 | 0.03 | 0.03 | 92 | 1006.6 |
| 20260510083830 | 49 | 165 | 2.0 | 6.0 | 0.00 | 0.03 | 0.03 | 92 | 1006.5 |
| 20260510083056 | 49 | 172 | 3.0 | 8.0 | 0.00 | 0.03 | 0.03 | 92 | 1006.5 |
| 20260510082557 | 49 | 166 | 3.0 | 8.0 | 0.00 | 0.03 | 0.03 | 92 | 1006.4 |
| 20260510082057 | 49 | 213 | 2.0 | 7.0 | 0.00 | 0.03 | 0.03 | 92 | 1006.5 |
| 20260510081558 | 50 | 158 | 2.0 | 8.0 | 0.00 | 0.03 | 0.03 | 92 | 1006.5 |
| 20260510081057 | 50 | 206 | 2.0 | 8.0 | 0.00 | 0.03 | 0.03 | 92 | 1006.5 |
| 20260510080057 | 50 | 160 | 2.0 | 7.0 | 0.00 | 0.03 | 0.03 | 92 | 1006.6 |
| 20260510075550 | 50 | 153 | 1.0 | 6.0 | 0.01 | 0.03 | 0.03 | 92 | 1006.6 |
| 20260510075051 | 50 | 167 | 2.0 | 7.0 | 0.01 | 0.03 | 0.03 | 92 | 1006.5 |
| 20260510074550 | 50 | 201 | 2.0 | 9.0 | 0.01 | 0.03 | 0.03 | 92 | 1006.5 |
| 20260510074322 | 50 | 216 | 2.0 | 9.0 | 0.01 | 0.03 | 0.03 | 92 | 1006.4 |
| 20260510073551 | 50 | 220 | 2.0 | 9.0 | 0.01 | 0.03 | 0.03 | 92 | 1006.4 |
| 20260510073050 | 50 | 160 | 2.0 | 8.0 | 0.01 | 0.03 | 0.03 | 92 | 1006.3 |
| 20260510072551 | 50 | 220 | 3.0 | 9.0 | 0.01 | 0.03 | 0.03 | 92 | 1006.3 |
| 20260510072322 | 50 | 160 | 2.0 | 9.0 | 0.01 | 0.03 | 0.03 | 92 | 1006.2 |
| 20260510071545 | 50 | 144 | 2.0 | 6.0 | 0.01 | 0.03 | 0.03 | 92 | 1006.2 |
| 20260510071043 | 50 | 137 | 3.0 | 9.0 | 0.01 | 0.03 | 0.03 | 92 | 1006.1 |
| 20260510070544 | 50 | 221 | 4.0 | 11.0 | 0.02 | 0.03 | 0.03 | 91 | 1006.1 |
| 20260510070042 | 50 | 152 | 4.0 | 11.0 | 0.02 | 0.03 | 0.03 | 91 | 1006.1 |
| 20260510065542 | 50 | 133 | 3.0 | 8.0 | 0.01 | 0.02 | 0.02 | 91 | 1006.1 |
| 20260510065043 | 50 | 208 | 3.0 | 11.0 | 0.01 | 0.02 | 0.02 | 91 | 1006.1 |
| 20260510064543 | 50 | 228 | 3.0 | 11.0 | 0.02 | 0.02 | 0.02 | 91 | 1006.1 |
| 20260510064040 | 50 | 146 | 3.0 | 9.0 | 0.02 | 0.02 | 0.02 | 91 | 1005.9 |
| 20260510063811 | 50 | 135 | 3.0 | 13.0 | 0.02 | 0.02 | 0.02 | 91 | 1005.9 |
| 20260510063040 | 50 | 141 | 3.0 | 13.0 | 0.02 | 0.02 | 0.02 | 91 | 1005.9 |
| 20260510062542 | 50 | 158 | 3.0 | 8.0 | 0.02 | 0.02 | 0.02 | 91 | 1005.9 |
| 20260510062312 | 50 | 162 | 4.0 | 8.0 | 0.02 | 0.02 | 0.02 | 91 | 1006.0 |
| 20260510061540 | 51 | 167 | 4.0 | 10.0 | 0.02 | 0.02 | 0.02 | 91 | 1006.0 |
| 20260510061041 | 51 | 219 | 4.0 | 10.0 | 0.02 | 0.02 | 0.02 | 91 | 1006.0 |
| 20260510060035 | 51 | 129 | 4.0 | 12.0 | 0.02 | 0.02 | 0.02 | 91 | 1006.0 |
| 20260510055804 | 51 | 150 | 4.0 | 10.0 | 0.02 | 0.02 | 0.02 | 90 | 1006.0 |
| 20260510055033 | 51 | 126 | 4.0 | 10.0 | 0.02 | 0.02 | 0.02 | 90 | 1006.0 |
| 20260510054804 | 51 | 163 | 3.0 | 10.0 | 0.01 | 0.01 | 0.01 | 90 | 1006.1 |
| 20260510054032 | 51 | 163 | 3.0 | 8.0 | 0.01 | 0.01 | 0.01 | 89 | 1006.2 |
| 20260510053533 | 51 | 139 | 3.0 | 11.0 | 0.00 | 0.00 | 0.00 | 89 | 1006.3 |
| 20260510053033 | 51 | 167 | 4.0 | 13.0 | 0.00 | 0.00 | 0.00 | 89 | 1006.3 |
| 20260510052531 | 51 | 162 | 5.0 | 13.0 | 0.00 | 0.00 | 0.00 | 89 | 1006.2 |
| 20260510052030 | 51 | 142 | 5.0 | 13.0 | 0.00 | 0.00 | 0.00 | 89 | 1006.2 |
| 20260510051530 | 51 | 187 | 5.0 | 16.0 | 0.00 | 0.00 | 0.00 | 88 | 1006.1 |
| 20260510051032 | 51 | 167 | 5.0 | 16.0 | 0.00 | 0.00 | 0.00 | 88 | 1006.0 |
| 20260510050530 | 51 | 186 | 5.0 | 21.0 | 0.00 | 0.00 | 0.00 | 87 | 1006.0 |
| 20260510050030 | 51 | 115 | 5.0 | 21.0 | 0.00 | 0.00 | 0.00 | 87 | 1006.1 |
| 20260510045530 | 51 | 205 | 5.0 | 15.0 | 0.00 | 0.00 | 0.00 | 86 | 1006.1 |
| 20260510045031 | 51 | 175 | 5.0 | 12.0 | 0.00 | 0.00 | 0.00 | 86 | 1006.2 |
| 20260510044525 | 51 | 214 | 6.0 | 15.0 | 0.00 | 0.00 | 0.00 | 86 | 1006.3 |
| 20260510044022 | 51 | 153 | 6.0 | 15.0 | 0.00 | 0.00 | 0.00 | 87 | 1006.1 |
| 20260510043755 | 51 | 198 | 5.0 | 14.0 | 0.00 | 0.00 | 0.00 | 87 | 1006.0 |
| 20260510043022 | 51 | 150 | 4.0 | 13.0 | 0.00 | 0.00 | 0.00 | 87 | 1005.8 |
| 20260510042522 | 51 | 191 | 5.0 | 13.0 | 0.00 | 0.00 | 0.00 | 87 | 1005.8 |
| 20260510042022 | 51 | 214 | 6.0 | 14.0 | 0.00 | 0.00 | 0.00 | 87 | 1005.6 |
| 20260510041523 | 51 | 188 | 5.0 | 14.0 | 0.00 | 0.00 | 0.00 | 87 | 1005.6 |
| 20260510041018 | 51 | 159 | 6.0 | 15.0 | 0.00 | 0.00 | 0.00 | 87 | 1005.7 |
| 20260510040518 | 51 | 145 | 5.0 | 15.0 | 0.00 | 0.00 | 0.00 | 87 | 1005.7 |
| 20260510040249 | 50 | 127 | 4.0 | 10.0 | 0.00 | 0.00 | 0.00 | 87 | 1005.6 |
| 20260510035517 | 50 | 271 | 5.0 | 10.0 | 0.00 | 0.00 | 0.00 | 88 | 1005.6 |
| 20260510035018 | 50 | 200 | 4.0 | 10.0 | 0.00 | 0.00 | 0.00 | 88 | 1005.7 |
| 20260510034517 | 50 | 164 | 4.0 | 10.0 | 0.00 | 0.00 | 0.00 | 88 | 1005.8 |
| 20260510034019 | 50 | 134 | 4.0 | 16.0 | 0.00 | 0.00 | 0.00 | 88 | 1005.7 |
| 20260510033519 | 50 | 166 | 5.0 | 16.0 | 0.00 | 0.00 | 0.00 | 88 | 1005.8 |
| 20260510033017 | 50 | 181 | 6.0 | 16.0 | 0.00 | 0.00 | 0.00 | 87 | 1005.8 |
| 20260510032517 | 50 | 161 | 6.0 | 16.0 | 0.00 | 0.00 | 0.00 | 88 | 1005.8 |
| 20260510032017 | 50 | 146 | 6.0 | 14.0 | 0.00 | 0.00 | 0.00 | 88 | 1005.9 |
| 20260510031517 | 50 | 166 | 5.0 | 12.0 | 0.00 | 0.00 | 0.00 | 88 | 1006.0 |
| 20260510031017 | 50 | 161 | 4.0 | 11.0 | 0.00 | 0.00 | 0.00 | 88 | 1006.0 |
| 20260510030518 | 50 | 274 | 4.0 | 11.0 | 0.00 | 0.00 | 0.00 | 87 | 1005.9 |
| 20260510030248 | 50 | 127 | 4.0 | 11.0 | 0.00 | 0.00 | 0.00 | 87 | 1005.9 |
| 20260510025517 | 50 | 157 | 4.0 | 11.0 | 0.00 | 0.00 | 0.00 | 87 | 1006.2 |
| 20260510025017 | 50 | 161 | 5.0 | 15.0 | 0.00 | 0.00 | 0.00 | 87 | 1006.3 |
| 20260510024517 | 50 | 148 | 6.0 | 15.0 | 0.00 | 0.00 | 0.00 | 87 | 1006.4 |
| 20260510024249 | 50 | 167 | 6.0 | 14.0 | 0.00 | 0.00 | 0.00 | 87 | 1006.3 |
| 20260510023517 | 50 | 210 | 4.0 | 14.0 | 0.00 | 0.00 | 0.00 | 87 | 1006.5 |
| 20260510023249 | 50 | 139 | 4.0 | 14.0 | 0.00 | 0.00 | 0.00 | 86 | 1006.7 |
| 20260510022517 | 51 | 164 | 4.0 | 12.0 | 0.00 | 0.00 | 0.00 | 86 | 1006.7 |
| 20260510022017 | 51 | 149 | 4.0 | 11.0 | 0.00 | 0.00 | 0.00 | 86 | 1006.8 |
| 20260510021518 | 50 | 157 | 3.0 | 10.0 | 0.00 | 0.00 | 0.00 | 86 | 1006.9 |
| 20260510021012 | 51 | 174 | 3.0 | 12.0 | 0.00 | 0.00 | 0.00 | 86 | 1006.9 |
| 20260510020513 | 51 | 176 | 4.0 | 12.0 | 0.00 | 0.00 | 0.00 | 86 | 1006.9 |
| 20260510020013 | 51 | 203 | 4.0 | 10.0 | 0.00 | 0.00 | 0.00 | 86 | 1006.9 |
| 20260510015513 | 51 | 161 | 4.0 | 11.0 | 0.00 | 0.00 | 0.00 | 86 | 1006.8 |
| 20260510015245 | 51 | 264 | 4.0 | 11.0 | 0.00 | 0.00 | 0.00 | 86 | 1007.1 |
| 20260510014509 | 51 | 244 | 5.0 | 12.0 | 0.00 | 0.00 | 0.00 | 86 | 1006.8 |
| 20260510014009 | 50 | 233 | 4.0 | 12.0 | 0.00 | 0.00 | 0.00 | 86 | 1006.6 |
| 20260510013509 | 50 | 149 | 4.0 | 13.0 | 0.00 | 0.00 | 0.00 | 86 | 1006.6 |
| 20260510013240 | 51 | 253 | 6.0 | 18.0 | 0.00 | 0.00 | 0.00 | 86 | 1006.7 |
| 20260510012239 | 51 | 152 | 5.0 | 13.0 | 0.00 | 0.00 | 0.00 | 86 | 1006.9 |
| 20260510011509 | 51 | 155 | 6.0 | 14.0 | 0.00 | 0.00 | 0.00 | 86 | 1006.8 |
| 20260510011009 | 51 | 166 | 6.0 | 14.0 | 0.00 | 0.00 | 0.00 | 86 | 1006.9 |
| 20260510010507 | 51 | 139 | 6.0 | 16.0 | 0.00 | 0.00 | 0.00 | 85 | 1006.8 |
| 20260510010238 | 51 | 165 | 7.0 | 18.0 | 0.00 | 0.00 | 0.00 | 85 | 1006.8 |
| 20260510005507 | 51 | 99 | 7.0 | 18.0 | 0.00 | 0.00 | 0.00 | 85 | 1006.8 |
| 20260510005006 | 51 | 153 | 7.0 | 17.0 | 0.00 | 0.00 | 0.00 | 85 | 1006.6 |
| 20260510004506 | 51 | 105 | 7.0 | 17.0 | 0.00 | 0.00 | 0.00 | 85 | 1006.8 |
| 20260510004008 | 51 | 237 | 6.0 | 14.0 | 0.00 | 0.00 | 0.00 | 84 | 1006.9 |
| 20260510003507 | 51 | 142 | 6.0 | 14.0 | 0.00 | 0.00 | 0.00 | 84 | 1006.9 |
| 20260510003006 | 51 | 179 | 5.0 | 14.0 | 0.00 | 0.00 | 0.00 | 83 | 1006.8 |
| 20260510002506 | 51 | 124 | 5.0 | 14.0 | 0.00 | 0.00 | 0.00 | 82 | 1006.8 |
| 20260510001959 | 51 | 134 | 4.0 | 14.0 | 0.00 | 0.00 | 0.00 | 82 | 1006.8 |
| 20260510001459 | 52 | 145 | 4.0 | 13.0 | 0.00 | 0.00 | 0.00 | 81 | 1007.0 |
| 20260510000959 | 52 | 193 | 5.0 | 15.0 | 0.00 | 0.00 | 0.00 | 80 | 1006.8 |
| 20260510000458 | 52 | 127 | 6.0 | 15.0 | 0.00 | 0.00 | 0.00 | 80 | 1006.8 |
| 20260509235958 | 52 | 157 | 6.0 | 13.0 | 0.00 | 0.00 | 0.00 | 79 | 1006.8 |
| 20260509235458 | 52 | 155 | 6.0 | 14.0 | 0.00 | 0.00 | 0.00 | 79 | 1006.8 |
| 20260509234958 | 52 | 159 | 5.0 | 14.0 | 0.00 | 0.00 | 0.00 | 78 | 1006.8 |
| 20260509234458 | 53 | 165 | 5.0 | 12.0 | 0.00 | 0.00 | 0.00 | 77 | 1006.8 |
| 20260509233953 | 53 | 144 | 6.0 | 12.0 | 0.00 | 0.00 | 0.00 | 77 | 1006.9 |
| 20260509233452 | 53 | 167 | 7.0 | 14.0 | 0.00 | 0.00 | 0.00 | 76 | 1006.9 |
| 20260509232953 | 53 | 170 | 6.0 | 16.0 | 0.00 | 0.00 | 0.00 | 76 | 1006.8 |
| 20260509232451 | 53 | 117 | 6.0 | 16.0 | 0.00 | 0.00 | 0.00 | 75 | 1006.9 |
| 20260509231950 | 53 | 172 | 7.0 | 18.0 | 0.00 | 0.00 | 0.00 | 75 | 1007.1 |
| 20260509231452 | 54 | 133 | 8.0 | 18.0 | 0.00 | 0.00 | 0.00 | 74 | 1007.2 |
| 20260509230949 | 54 | 167 | 7.0 | 18.0 | 0.00 | 0.00 | 0.00 | 73 | 1007.1 |
| 20260509230449 | 55 | 158 | 7.0 | 20.0 | 0.00 | 0.00 | 0.00 | 72 | 1007.2 |
| 20260509230218 | 55 | 224 | 7.0 | 20.0 | 0.00 | 0.00 | 0.00 | 71 | 1007.2 |
| 20260509225447 | 56 | 153 | 7.0 | 17.0 | 0.00 | 0.00 | 0.00 | 70 | 1007.2 |
| 20260509224946 | 56 | 161 | 6.0 | 15.0 | 0.00 | 0.00 | 0.00 | 71 | 1007.2 |
| 20260509223947 | 56 | 295 | 7.0 | 19.0 | 0.00 | 0.00 | 0.00 | 69 | 1007.3 |
| 20260509223447 | 56 | 158 | 7.0 | 18.0 | 0.00 | 0.00 | 0.00 | 69 | 1007.1 |
| 20260509222946 | 57 | 158 | 7.0 | 18.0 | 0.00 | 0.00 | 0.00 | 68 | 1007.3 |
| 20260509222447 | 57 | 153 | 7.0 | 15.0 | 0.00 | 0.00 | 0.00 | 67 | 1007.2 |
| 20260509221943 | 57 | 136 | 7.0 | 15.0 | 0.00 | 0.00 | 0.00 | 67 | 1007.1 |
| 20260509221711 | 57 | 217 | 6.0 | 15.0 | 0.00 | 0.00 | 0.00 | 67 | 1007.1 |
| 20260509220942 | 57 | 200 | 7.0 | 15.0 | 0.00 | 0.00 | 0.00 | 67 | 1007.1 |
| 20260509220440 | 57 | 125 | 7.0 | 21.0 | 0.00 | 0.00 | 0.00 | 67 | 1007.1 |
| 20260509215943 | 57 | 133 | 8.0 | 21.0 | 0.00 | 0.00 | 0.00 | 67 | 1007.2 |
| 20260509215438 | 57 | 233 | 8.0 | 20.0 | 0.00 | 0.00 | 0.00 | 66 | 1007.2 |
| 20260509214942 | 58 | 199 | 8.0 | 18.0 | 0.00 | 0.00 | 0.00 | 66 | 1007.2 |
| 20260509214436 | 58 | 190 | 8.0 | 18.0 | 0.00 | 0.00 | 0.00 | 66 | 1007.3 |
| 20260509213938 | 58 | 171 | 8.0 | 16.0 | 0.00 | 0.00 | 0.00 | 65 | 1007.3 |
| 20260509213437 | 58 | 135 | 7.0 | 16.0 | 0.00 | 0.00 | 0.00 | 65 | 1007.3 |
| 20260509213210 | 58 | 162 | 8.0 | 16.0 | 0.00 | 0.00 | 0.00 | 65 | 1007.2 |
| 20260509212436 | 58 | 148 | 8.0 | 19.0 | 0.00 | 0.00 | 0.00 | 65 | 1007.2 |
| 20260509211937 | 58 | 186 | 8.0 | 19.0 | 0.00 | 0.00 | 0.00 | 64 | 1007.2 |
| 20260509211436 | 58 | 142 | 8.0 | 19.0 | 0.00 | 0.00 | 0.00 | 64 | 1007.3 |
| 20260509210938 | 58 | 191 | 8.0 | 19.0 | 0.00 | 0.00 | 0.00 | 63 | 1007.2 |
| 20260509210434 | 58 | 146 | 9.0 | 20.0 | 0.00 | 0.00 | 0.00 | 62 | 1007.3 |
| 20260509205934 | 58 | 137 | 9.0 | 23.0 | 0.00 | 0.00 | 0.00 | 61 | 1007.3 |
| 20260509205432 | 59 | 176 | 9.0 | 23.0 | 0.00 | 0.00 | 0.00 | 60 | 1007.5 |
| 20260509204935 | 59 | 162 | 7.0 | 20.0 | 0.00 | 0.00 | 0.00 | 59 | 1007.6 |
| 20260509204432 | 59 | 188 | 8.0 | 21.0 | 0.00 | 0.00 | 0.00 | 59 | 1007.5 |
| 20260509203933 | 59 | 148 | 8.0 | 21.0 | 0.00 | 0.00 | 0.00 | 57 | 1007.4 |
| 20260509203432 | 60 | 201 | 8.0 | 20.0 | 0.00 | 0.00 | 0.00 | 57 | 1007.5 |
| 20260509202935 | 59 | 52 | 8.0 | 20.0 | 0.00 | 0.00 | 0.00 | 57 | 1007.6 |
| 20260509201928 | 60 | 120 | 8.0 | 17.0 | 0.00 | 0.00 | 0.00 | 55 | 1007.6 |
| 20260509200929 | 60 | 179 | 6.0 | 19.0 | 0.00 | 0.00 | 0.00 | 54 | 1007.6 |
| 20260509200426 | 60 | 117 | 8.0 | 26.0 | 0.00 | 0.00 | 0.00 | 54 | 1007.6 |
| 20260509195928 | 60 | 128 | 8.0 | 26.0 | 0.00 | 0.00 | 0.00 | 53 | 1007.7 |
| 20260509195426 | 60 | 104 | 8.0 | 18.0 | 0.00 | 0.00 | 0.00 | 53 | 1007.8 |
| 20260509195200 | 60 | 160 | 7.0 | 21.0 | 0.00 | 0.00 | 0.00 | 53 | 1007.9 |
| 20260509194426 | 60 | 105 | 8.0 | 21.0 | 0.00 | 0.00 | 0.00 | 53 | 1007.9 |
| 20260509193929 | 60 | 192 | 8.0 | 20.0 | 0.00 | 0.00 | 0.00 | 53 | 1007.8 |
| 20260509193427 | 60 | 138 | 8.0 | 20.0 | 0.00 | 0.00 | 0.00 | 54 | 1007.8 |
| 20260509192922 | 60 | 121 | 8.0 | 22.0 | 0.00 | 0.00 | 0.00 | 52 | 1007.8 |
| 20260509192419 | 60 | 138 | 9.0 | 22.0 | 0.00 | 0.00 | 0.00 | 51 | 1007.9 |
| 20260509192152 | 60 | 156 | 9.0 | 19.0 | 0.00 | 0.00 | 0.00 | 51 | 1007.8 |
| 20260509191420 | 60 | 205 | 8.0 | 19.0 | 0.00 | 0.00 | 0.00 | 49 | 1007.8 |
| 20260509190922 | 60 | 217 | 8.0 | 18.0 | 0.00 | 0.00 | 0.00 | 51 | 1007.7 |
| 20260509190420 | 61 | 164 | 8.0 | 23.0 | 0.00 | 0.00 | 0.00 | 51 | 1007.9 |
| 20260509185921 | 61 | 183 | 8.0 | 23.0 | 0.00 | 0.00 | 0.00 | 50 | 1007.9 |
| 20260509185420 | 61 | 182 | 9.0 | 23.0 | 0.00 | 0.00 | 0.00 | 48 | 1008.0 |
| 20260509184922 | 61 | 214 | 9.0 | 23.0 | 0.00 | 0.00 | 0.00 | 45 | 1008.0 |
| 20260509184420 | 62 | 129 | 8.0 | 16.0 | 0.00 | 0.00 | 0.00 | 45 | 1008.1 |
| 20260509183920 | 62 | 212 | 8.0 | 16.0 | 0.00 | 0.00 | 0.00 | 43 | 1008.1 |
| 20260509183420 | 62 | 134 | 6.0 | 16.0 | 0.00 | 0.00 | 0.00 | 43 | 1008.2 |
| 20260509183150 | 63 | 145 | 6.0 | 17.0 | 0.00 | 0.00 | 0.00 | 44 | 1008.3 |
| 20260509182421 | 63 | 191 | 5.0 | 17.0 | 0.00 | 0.00 | 0.00 | 45 | 1008.3 |
| 20260509181918 | 63 | 136 | 4.0 | 14.0 | 0.00 | 0.00 | 0.00 | 43 | 1008.4 |
| 20260509181415 | 63 | 158 | 6.0 | 14.0 | 0.00 | 0.00 | 0.00 | 43 | 1008.4 |
| 20260509180918 | 63 | 143 | 6.0 | 14.0 | 0.00 | 0.00 | 0.00 | 39 | 1008.4 |
| 20260509180417 | 63 | 148 | 5.0 | 12.0 | 0.00 | 0.00 | 0.00 | 40 | 1008.5 |
| 20260509175919 | 63 | 192 | 5.0 | 13.0 | 0.00 | 0.00 | 0.00 | 37 | 1008.7 |
| 20260509175642 | 63 | 162 | 6.0 | 14.0 | 0.00 | 0.00 | 0.00 | 38 | 1008.8 |
| 20260509174913 | 63 | 181 | 7.0 | 16.0 | 0.00 | 0.00 | 0.00 | 38 | 1008.8 |
| 20260509174413 | 63 | 228 | 7.0 | 16.0 | 0.00 | 0.00 | 0.00 | 35 | 1008.9 |
| 20260509173913 | 64 | 101 | 5.0 | 15.0 | 0.00 | 0.00 | 0.00 | 34 | 1009.0 |
| 20260509173412 | 64 | 146 | 4.0 | 13.0 | 0.00 | 0.00 | 0.00 | 35 | 1009.1 |
| 20260509172913 | 63 | 140 | 5.0 | 13.0 | 0.00 | 0.00 | 0.00 | 37 | 1009.1 |
| 20260509172412 | 63 | 164 | 5.0 | 13.0 | 0.00 | 0.00 | 0.00 | 33 | 1009.2 |
| 20260509171913 | 62 | 192 | 6.0 | 18.0 | 0.00 | 0.00 | 0.00 | 35 | 1009.3 |
| 20260509171642 | 62 | 169 | 7.0 | 18.0 | 0.00 | 0.00 | 0.00 | 33 | 1009.3 |
| 20260509170913 | 62 | 103 | 6.0 | 15.0 | 0.00 | 0.00 | 0.00 | 34 | 1009.3 |
| 20260509170412 | 61 | 152 | 6.0 | 15.0 | 0.00 | 0.00 | 0.00 | 32 | 1009.4 |
| 20260509165913 | 61 | 146 | 6.0 | 14.0 | 0.00 | 0.00 | 0.00 | 32 | 1009.6 |
| 20260509165407 | 60 | 141 | 6.0 | 14.0 | 0.00 | 0.00 | 0.00 | 35 | 1009.7 |
| 20260509164910 | 60 | 155 | 7.0 | 14.0 | 0.00 | 0.00 | 0.00 | 36 | 1009.7 |
| 20260509164640 | 60 | 174 | 6.0 | 16.0 | 0.00 | 0.00 | 0.00 | 35 | 1009.8 |
| 20260509164141 | 60 | 179 | 6.0 | 16.0 | 0.00 | 0.00 | 0.00 | 34 | 1009.8 |
| 20260509163407 | 61 | 140 | 6.0 | 16.0 | 0.00 | 0.00 | 0.00 | 36 | 1009.8 |
| 20260509162909 | 61 | 143 | 6.0 | 16.0 | 0.00 | 0.00 | 0.00 | 35 | 1009.8 |
| 20260509162409 | 61 | 160 | 6.0 | 16.0 | 0.00 | 0.00 | 0.00 | 40 | 1009.8 |
| 20260509161909 | 61 | 92 | 7.0 | 16.0 | 0.00 | 0.00 | 0.00 | 37 | 1010.0 |
| 20260509161408 | 61 | 182 | 7.0 | 14.0 | 0.00 | 0.00 | 0.00 | 36 | 1010.1 |
| 20260509160910 | 61 | 174 | 6.0 | 14.0 | 0.00 | 0.00 | 0.00 | 36 | 1010.1 |
| 20260509160637 | 61 | 136 | 6.0 | 14.0 | 0.00 | 0.00 | 0.00 | 36 | 1010.0 |
| 20260509155908 | 60 | 338 | 7.0 | 14.0 | 0.00 | 0.00 | 0.00 | 38 | 1010.2 |
| 20260509155405 | 60 | 148 | 6.0 | 14.0 | 0.00 | 0.00 | 0.00 | 38 | 1010.3 |
| 20260509154907 | 60 | 146 | 5.0 | 13.0 | 0.00 | 0.00 | 0.00 | 40 | 1010.3 |
| 20260509154406 | 60 | 150 | 6.0 | 15.0 | 0.00 | 0.00 | 0.00 | 42 | 1010.5 |
| 20260509154140 | 60 | 146 | 6.0 | 15.0 | 0.00 | 0.00 | 0.00 | 42 | 1010.5 |
| 20260509153403 | 60 | 170 | 5.0 | 11.0 | 0.00 | 0.00 | 0.00 | 40 | 1010.5 |
| 20260509152905 | 60 | 172 | 5.0 | 16.0 | 0.00 | 0.00 | 0.00 | 43 | 1010.7 |
| 20260509152633 | 59 | 111 | 5.0 | 16.0 | 0.00 | 0.00 | 0.00 | 40 | 1010.8 |
| 20260509151902 | 60 | 152 | 4.0 | 12.0 | 0.00 | 0.00 | 0.00 | 42 | 1010.8 |
| 20260509151402 | 59 | 115 | 4.0 | 11.0 | 0.00 | 0.00 | 0.00 | 43 | 1010.9 |
| 20260509151132 | 59 | 135 | 4.0 | 13.0 | 0.00 | 0.00 | 0.00 | 44 | 1010.9 |
| 20260509150359 | 58 | 206 | 5.0 | 13.0 | 0.00 | 0.00 | 0.00 | 46 | 1010.9 |
| 20260509145357 | 58 | 153 | 6.0 | 12.0 | 0.00 | 0.00 | 0.00 | 45 | 1011.0 |
| 20260509144859 | 57 | 141 | 6.0 | 13.0 | 0.00 | 0.00 | 0.00 | 46 | 1011.0 |
| 20260509144355 | 57 | 143 | 7.0 | 16.0 | 0.00 | 0.00 | 0.00 | 46 | 1011.0 |
| 20260509143857 | 56 | 175 | 6.0 | 16.0 | 0.00 | 0.00 | 0.00 | 47 | 1011.1 |
| 20260509143355 | 57 | 151 | 6.0 | 17.0 | 0.00 | 0.00 | 0.00 | 46 | 1011.1 |
| 20260509142858 | 56 | 162 | 6.0 | 17.0 | 0.00 | 0.00 | 0.00 | 48 | 1011.1 |
| 20260509142355 | 56 | 150 | 6.0 | 14.0 | 0.00 | 0.00 | 0.00 | 48 | 1011.2 |
| 20260509141857 | 55 | 172 | 7.0 | 16.0 | 0.00 | 0.00 | 0.00 | 48 | 1011.2 |
| 20260509141356 | 55 | 118 | 7.0 | 16.0 | 0.00 | 0.00 | 0.00 | 48 | 1011.2 |
| 20260509140857 | 55 | 219 | 5.0 | 12.0 | 0.00 | 0.00 | 0.00 | 50 | 1011.3 |
| 20260509140354 | 55 | 187 | 4.0 | 11.0 | 0.00 | 0.00 | 0.00 | 53 | 1011.4 |
| 20260509135852 | 55 | 172 | 4.0 | 12.0 | 0.00 | 0.00 | 0.00 | 51 | 1011.3 |
| 20260509135351 | 56 | 234 | 4.0 | 12.0 | 0.00 | 0.00 | 0.00 | 53 | 1011.3 |
| 20260509134847 | 55 | 134 | 4.0 | 11.0 | 0.00 | 0.00 | 0.00 | 53 | 1011.2 |
| 20260509134348 | 55 | 158 | 4.0 | 11.0 | 0.00 | 0.00 | 0.00 | 53 | 1011.2 |
| 20260509133847 | 55 | 239 | 4.0 | 11.0 | 0.00 | 0.00 | 0.00 | 53 | 1011.2 |
| 20260509133348 | 55 | 145 | 4.0 | 9.0 | 0.00 | 0.00 | 0.00 | 53 | 1011.3 |
| 20260509132846 | 54 | 158 | 3.0 | 11.0 | 0.00 | 0.01 | 0.00 | 54 | 1011.3 |
| 20260509132346 | 54 | 155 | 4.0 | 11.0 | 0.00 | 0.01 | 0.00 | 53 | 1011.4 |
| 20260509131845 | 53 | 250 | 4.0 | 11.0 | 0.00 | 0.01 | 0.00 | 54 | 1011.5 |
| 20260509131346 | 53 | 142 | 4.0 | 10.0 | 0.00 | 0.01 | 0.00 | 55 | 1011.5 |
| 20260509130845 | 53 | 136 | 4.0 | 9.0 | 0.00 | 0.01 | 0.00 | 57 | 1011.6 |
| 20260509130344 | 53 | 169 | 4.0 | 11.0 | 0.00 | 0.01 | 0.00 | 58 | 1011.6 |
| 20260509125845 | 52 | 249 | 5.0 | 11.0 | 0.00 | 0.01 | 0.00 | 58 | 1011.6 |
| 20260509125346 | 51 | 150 | 5.0 | 15.0 | 0.00 | 0.01 | 0.00 | 59 | 1011.6 |
| 20260509124841 | 51 | 142 | 6.0 | 15.0 | 0.00 | 0.01 | 0.00 | 58 | 1011.6 |
| 20260509124340 | 51 | 130 | 5.0 | 11.0 | 0.00 | 0.01 | 0.00 | 57 | 1011.7 |
| 20260509123841 | 52 | 160 | 5.0 | 12.0 | 0.00 | 0.01 | 0.00 | 57 | 1011.6 |
| 20260509123337 | 52 | 160 | 4.0 | 12.0 | 0.00 | 0.01 | 0.00 | 60 | 1011.6 |
| 20260509122837 | 52 | 165 | 3.0 | 11.0 | 0.00 | 0.01 | 0.00 | 58 | 1011.7 |
| 20260509122338 | 52 | 224 | 3.0 | 11.0 | 0.00 | 0.01 | 0.00 | 57 | 1011.7 |
| 20260509121838 | 51 | 217 | 3.0 | 11.0 | 0.00 | 0.01 | 0.00 | 58 | 1011.8 |
| 20260509121333 | 51 | 163 | 2.0 | 8.0 | 0.00 | 0.01 | 0.00 | 60 | 1011.8 |
| 20260509120833 | 50 | 154 | 2.0 | 6.0 | 0.00 | 0.01 | 0.00 | 62 | 1011.8 |
| 20260509120332 | 50 | 194 | 3.0 | 8.0 | 0.00 | 0.01 | 0.00 | 60 | 1011.8 |
| 20260509115831 | 49 | 222 | 3.0 | 8.0 | 0.00 | 0.01 | 0.00 | 64 | 1011.9 |
| 20260509115331 | 49 | 138 | 4.0 | 11.0 | 0.00 | 0.01 | 0.00 | 64 | 1011.9 |
| 20260509114831 | 49 | 149 | 4.0 | 11.0 | 0.00 | 0.01 | 0.00 | 64 | 1011.8 |
| 20260509114331 | 49 | 155 | 3.0 | 9.0 | 0.00 | 0.01 | 0.00 | 64 | 1011.7 |
| 20260509113832 | 48 | 149 | 2.0 | 7.0 | 0.00 | 0.01 | 0.00 | 66 | 1011.6 |
| 20260509113329 | 48 | 146 | 2.0 | 7.0 | 0.00 | 0.01 | 0.00 | 67 | 1011.7 |
| 20260509112830 | 47 | 195 | 2.0 | 7.0 | 0.00 | 0.01 | 0.00 | 66 | 1011.6 |
| 20260509112559 | 47 | 276 | 3.0 | 7.0 | 0.00 | 0.01 | 0.00 | 67 | 1011.7 |
| 20260509111829 | 47 | 150 | 2.0 | 6.0 | 0.00 | 0.01 | 0.00 | 69 | 1011.7 |
| 20260509111330 | 46 | 168 | 2.0 | 6.0 | 0.00 | 0.01 | 0.00 | 70 | 1011.7 |
| 20260509110829 | 46 | 171 | 2.0 | 6.0 | 0.00 | 0.01 | 0.00 | 72 | 1011.8 |
| 20260509110325 | 45 | 150 | 2.0 | 5.0 | 0.00 | 0.01 | 0.00 | 73 | 1011.8 |
| 20260509105825 | 44 | 169 | 2.0 | 6.0 | 0.00 | 0.01 | 0.00 | 74 | 1011.8 |
| 20260509105326 | 44 | 135 | 2.0 | 6.0 | 0.00 | 0.01 | 0.00 | 75 | 1011.8 |
| 20260509104826 | 43 | 148 | 1.0 | 6.0 | 0.00 | 0.01 | 0.00 | 77 | 1011.8 |
| 20260509103825 | 41 | 231 | 2.0 | 6.0 | 0.00 | 0.01 | 0.00 | 78 | 1011.7 |
| 20260509103555 | 40 | 138 | 1.0 | 5.0 | 0.00 | 0.01 | 0.00 | 80 | 1011.7 |
| 20260509103057 | 40 | 159 | 1.0 | 5.0 | 0.00 | 0.01 | 0.00 | 80 | 1011.6 |
| 20260509102325 | 39 | 169 | 1.0 | 5.0 | 0.00 | 0.01 | 0.00 | 81 | 1011.5 |
| 20260509101556 | 39 | 167 | 1.0 | 5.0 | 0.00 | 0.01 | 0.00 | 81 | 1011.4 |
| 20260509100825 | 39 | 247 | 1.0 | 5.0 | 0.00 | 0.01 | 0.00 | 81 | 1011.3 |
| 20260509100325 | 39 | 210 | 1.0 | 5.0 | 0.00 | 0.01 | 0.00 | 81 | 1011.2 |
| 20260509095825 | 39 | 191 | 1.0 | 6.0 | 0.00 | 0.01 | 0.00 | 81 | 1011.1 |
| 20260509095326 | 39 | 280 | 1.0 | 6.0 | 0.00 | 0.01 | 0.00 | 81 | 1011.0 |
| 20260509095059 | 38 | 222 | 1.0 | 4.0 | 0.00 | 0.01 | 0.00 | 81 | 1011.1 |
| 20260509094324 | 38 | 214 | 2.0 | 5.0 | 0.00 | 0.01 | 0.00 | 81 | 1011.0 |
| 20260509093825 | 38 | 165 | 2.0 | 5.0 | 0.00 | 0.01 | 0.00 | 82 | 1011.0 |
| 20260509093325 | 38 | 146 | 1.0 | 5.0 | 0.00 | 0.01 | 0.00 | 82 | 1011.0 |
| 20260509092826 | 38 | 188 | 1.0 | 5.0 | 0.00 | 0.01 | 0.00 | 82 | 1011.0 |
| 20260509092325 | 38 | 171 | 1.0 | 5.0 | 0.00 | 0.01 | 0.00 | 82 | 1011.0 |
| 20260509092056 | 38 | 160 | 1.0 | 3.0 | 0.00 | 0.01 | 0.00 | 82 | 1011.0 |
| 20260509091324 | 38 | 164 | 1.0 | 4.0 | 0.00 | 0.01 | 0.00 | 82 | 1011.1 |
| 20260509090825 | 38 | 150 | 0.0 | 4.0 | 0.00 | 0.01 | 0.00 | 82 | 1011.1 |
| 20260509090320 | 38 | 203 | 0.0 | 3.0 | 0.00 | 0.01 | 0.00 | 81 | 1011.1 |
| 20260509085817 | 38 | 155 | 1.0 | 3.0 | 0.00 | 0.01 | 0.00 | 81 | 1011.0 |